SL-12 R/B(2)

Satellite information

Favourite Embed

Satellite Type and Status

ROCKET BODYIN ORBIT

Key statistics

Satellite SL-12 R/B(2) at a glance.

Uptime

10910

Days in orbit

Revolutions

≈ 2.1

Per day

Orbit

MEO

Medium Earth Orbit

Inclination

65.5

Latest

Satellite identification and parameters

Extended collection of information and parameters for SL-12 R/B(2).

Object identification

Identified? True

Debris? False

Object name: SL-12 R/B(2)

International designator: 1995-068F

Object number (NORAD): 23739

Object ID (CCSDS): 23739

Country: COMMONWEALTH OF INDEPENDENT STATES (CIS)

Current information (Y/N): Y

RCS size: LARGE

Orbital parameters

Period: 674.867 minutes

Inclination: 65.4728 deg

SMA: 25486.236 km

Apoapsis: 19138.656 km

Periapsis: 19077.545 km

RAAN: 209.3594 deg

Eccentricy: 0.0011989

Argument of periapsis: 190.7512 deg

Mean anomaly: 352.9624 deg

Mean motion: 2.13375338 rev/day

Mean motion (dot): 0.0000002 rev/day2

B* drag term: 0.0 1/REarth

Two-line elements (TLE)

Creation date: Oct. 23, 2025, 2:46 a.m.

Reference frame: TEME

Reference center: EARTH

Epoch: Oct. 22, 2025, 7:30 p.m. UTC

TLE line 0: 0 SL-12 R/B(2)

TLE line 1: 1 23739U 95068F 25295.81316272 .00000020 00000-0 00000-0 0 9997

TLE line 2: 2 23739 65.4728 209.3594 0011989 190.7512 352.9624 2.13375338232624

Live tracking on map

Real-time ground track for satellite SL-12 R/B(2).

In-orbit conjunctions

A list of the most updated potential collisions computed for object SL-12 R/B(2).

Target Orbit TCA Probability of collision Miss distance Type
COSMOS 1778 (GLONASS) MEO 2025-10-29 16:00:40 TBA 4821.0 (m) PAYLOAD
COSMOS 2363 (GLONASS) MEO 2025-02-21 20:38:32 TBA 4031.0 (m) PAYLOAD

Associated space launch

GLONASS navigation satellites

SL-12 R/B(2) was lifted into orbit during the mission ‘Proton | Uragan 69 to 71’, on board a Proton space rocket.

The launch took place on Dec. 14, 1995, 6:10 a.m. from 200/39 (200L).

For more information about the launch, click the button.

Launch to space Proton | Uragan 69 to 71
Proton | Uragan 69 to 71

Agency: N/A

Status: Launch Successful

Launch date: Dec. 14, 1995, 6:10 a.m. UTC

Rocket: Proton

Launch pad: 200/39 (200L)

Location: Baikonur Cosmodrome, Republic of Kazakhstan

...

Latest news about this satellite

There are no fresh news available about this satellite. Check back as we update our databases every day.


Newsletter sign-up

Weekly statistics, charts and insights to help you stay on top of the space industry.